Regional Weather Roundup
Issued by NWS

Home | Current Version | Previous Version | Text Only | Print | Product List | Glossary On
Versions: 1 2 3 4 5 6 7 8 9 10 11 12 13 14 15 16 17 18 19 20 21 22 23 24 25 26 27
000
ASUS45 KBOU 251307
RWRCO

WEATHER ROUNDUP FOR COLORADO
NATIONAL WEATHER SERVICE DENVER/BOULDER CO
700 AM MDT TUE APR 25 2017

NOTE: "FAIR" INDICATES FEW OR NO CLOUDS BELOW 12000 FEET WITH NO
SIGNIFICANT WEATHER AND/OR OBSTRUCTIONS TO VISIBILITY.

COZ001>005-013-030-031-251400-
...NORTHWEST COLORADO...

CITY           SKY/WX    TMP DP  RH WIND       PRES   REMARKS
CRAIG          FOG       30  27  88 SE3       29.71S VSB 1/4
HAYDEN         FAIR      32  27  80 NE3       29.70F
MEEKER         FOG       32  32 100 CALM      29.70R VSB 1/4
MOUNT WERNER   NOT AVBL
STEAMBOAT SPGS FAIR      32  31  98 E3        29.70F
WALDEN           N/A     27  21  80 SE5       29.68S WCI  21
$$

COZ006>008-011-251400-
...WEST CENTRAL VALLEYS...

CITY           SKY/WX    TMP DP  RH WIND       PRES   REMARKS
GRAND JUNCTION FAIR      42  38  85 W3        29.67R
MONTROSE       CLOUDY    44  33  65 S16       29.70R
EAGLE          MOCLDY    36  32  87 CALM      29.71
RIFLE          FAIR      37  35  92 CALM      29.70R
DELTA          CLOUDY    45  33  63 NE3       29.68S
NUCLA          CLOUDY    45  27  49 SW3       29.71S
$$

COZ017>023-064>068-251400-
...SOUTHWEST COLORADO...

CITY           SKY/WX    TMP DP  RH WIND       PRES   REMARKS
DURANGO        CLOUDY    45  29  53 NW20G28   29.66R
CORTEZ         CLOUDY    46  32  58 NW12      29.71R
PAGOSA SPRINGS CLOUDY    44  30  59 S6        29.70R
TELLURIDE      SNOW      31  31 100 W7        29.75S VSB 1/2 WCI  24
WOLF CREEK PAS HVY SNOW  23  23 100 S15G24    29.79F VSB<1/4 WCI  10
$$

COZ009-010-012-014-032>034-037-058>063-251400-
...CENTRAL COLORADO...

CITY           SKY/WX    TMP DP  RH WIND       PRES   REMARKS
ASPEN          FAIR      28  27  96 SW5       29.68F WCI  23
BUENA VISTA    FAIR      33  24  69 W5        29.65S WCI  28
COPPER MTN     MOCLDY    23  18  80 MISG      29.71F HAZE
BERTHOUD PASS  FAIR      10   0  61 MISG      29.65F
COTTONWOOD PAS FAIR      32  18  55 W17G33    29.67S WCI  21
GUNNISON       MIX PCPN  33  31  92 E3        29.72S
KREMMLING      MOCLDY    36  32  87 CALM      29.71R
LEADVILLE      FAIR      24  18  77 N3        29.69F
SALIDA         FAIR      35  33  90 CALM      29.73S
SUNLIGHT       CLOUDY    21  19  93 MISG      29.77R
WILKERSON PASS FAIR      21  16  79 NW12G18   29.70F WCI   9
$$

COZ069>075-251400-
...SAN LUIS VALLEY/SANGRE DE CRISTO MOUNTAINS...

CITY           SKY/WX    TMP DP  RH WIND       PRES   REMARKS
ALAMOSA        FAIR      40  27  59 NE7       29.66S
LA VETA PASS   CLOUDY    34  23  64 SW13G23   29.80R WCI  25
SAGUACHE       FAIR      36  27  69 NW14      29.68S
$$

COZ035-036-038>040-251400-
...NORTHERN COLORADO FRONT RANGE...

CITY           SKY/WX    TMP DP  RH WIND       PRES   REMARKS
DENVER INTL AP FAIR      44  31  60 W22       29.54F
DMNS CITY PARK   N/A     46  25  44 W5        29.56S
AURORA         PTCLDY    41  34  77 W9        29.55F
FRONT RANGE AP NOT AVBL
ERIE MUNI ARPT FAIR      42  33  71 SW5       29.54F
BOULDER MUN AP FAIR      46  23  39 W10G24    29.53F
CENTENNIAL     FAIR      40  34  79 SW7       29.56F
BROOMFIELD     PTCLDY    45  28  53 W13G25    29.55F
FORT COLLINS   FOG       40  39  97 NE6       29.55F VSB 1/4
LONGMONT       FAIR      43  39  84 CALM      29.55F
$$

COZ041-046-047-076>085-087-088-251400-
...PIKES PEAK/PALMER DIVIDE AND SOUTHERN FOOTHILLS...

CITY           SKY/WX    TMP DP  RH WIND       PRES   REMARKS
COLO. SPRINGS  MOCLDY    50  19  29 NW14      29.58R
A. F. ACADEMY  FAIR      43  23  44 E6        29.57S
SCHRIEVER AFB  FAIR      44  29  55 N13       29.58R
ELLICOTT       FAIR     N/A N/A N/A NE12      29.56S
FALCON         FAIR      41  28  58 N10       29.60S
FORT CARSON    FAIR      42  30  62 SE10      29.55S
LIMON          FAIR      39  38  96 CALM      29.58R
MONUMENT HILL  FAIR      32  32 100 W9        29.61S WCI  24
TRINIDAD       FAIR      44  37  76 NE16G24   29.59R
$$

COZ042>045-048>051-090-091-251400-
...NORTHEAST COLORADO...

CITY           SKY/WX    TMP DP  RH WIND       PRES   REMARKS
GREELEY ARPT   FOG       41  41 100 NE6       29.57S VSB 1
AKRON          FAIR      40  38  93 SW3       29.55R
BURLINGTON     NOT AVBL
WRAY           NOT AVBL
STERLING       FAIR      41  41 100 N5        29.54R
HOLYOKE        RAIN      46  43  87 NE8       29.55F
FORT MORGAN    FAIR      41  40  95 W5        29.57R FOG
$$

COZ086-089-092>099-251400-
...SOUTHEAST COLORADO...

CITY           SKY/WX    TMP DP  RH WIND       PRES   REMARKS
PUEBLO         FAIR      46  39  76 E7        29.56S
LA JUNTA       FAIR      48  39  71 NE16      29.55R
LAMAR          PTSUNNY   51  42  71 N21G28    29.52R
SPRINGFIELD      N/A     47  41  80 N26G40    29.52R
$$




USA.gov is the U.S. government's official web portal to all federal, state and local government web resources and services.